Regional Weather Roundup
Issued by NWS Wakefield, VA

Home | Current Version | Previous Version | Text Only | Print | Product List | Glossary On
Versions: 1 2 3 4 5 6 7 8 9 10 11 12 13 14 15 16 17 18 19 20 21 22 23 24 25 26 27 28 29 30 31 32 33 34 35 36 37 38 39 40 41 42 43 44 45 46 47 48 49 50
000
ASUS41 KAKQ 271415
RWRAKQ

REGIONAL WEATHER ROUNDUP
NATIONAL WEATHER SERVICE WAKEFIELD VA
1000 AM EDT WED MAY 27 2015

Note: "fair" indicates few or no clouds below 12,000 feet with no
significant weather and/or obstructions to visibility. * = Denotes
station may not report precipitation (e.g., rain,snow,etc.),
thunder or fog.

VAZ042-051-052>054-056-271500-
NORTHERN VIRGINIA

CITY           SKY/WX    TMP DP  RH WIND       PRES   REMARKS
WASH NATIONAL  CLOUDY    78  70  76 S10       30.17F
DULLES         PTSUNNY   76  68  76 SW10      30.16F
FORT BELVOIR   PTSUNNY   76  69  77 S6        30.17F
QUANTICO       PTSUNNY   77  70  79 S8        30.17F
FREDERICKSBRG* SUNNY     82  69  64 S9        30.16F
STAFFORD*      MOSUNNY   79  67  66 S7        30.20F
WARRENTON      MOSUNNY   80  72  77 SW7       30.17S
CULPEPER*      PTSUNNY   78  69  73 S8        30.17F
MANASSAS*      NOT AVBL
LEESBURG*      CLOUDY    79  72  78 S9G16     30.17F
WINCHESTER     MOSUNNY   79  63  57 S7        30.16S
FRONT ROYAL*   FAIR      77  70  78 S3        30.15S
LURAY*         FAIR      81  68  65 S14       30.17S
$$

VAZ048-049-060>072-079>083-271500-
CENTRAL AND SOUTH CENTRAL VIRGINIA

CITY           SKY/WX    TMP DP  RH WIND       PRES   REMARKS
RICHMOND       MOSUNNY   81  67  62 SW15G21   30.21S
CHESTERFIELD*  NOT AVBL
PETERSBURG*    MOSUNNY   81  73  76 SW6       30.23S
HANOVER        SUNNY     80  66  62 SW13      30.21F
TAPPAHANNOCK*  SUNNY     81  64  56 S8        30.20F
QUINTON*       FAIR      78  69  73 S8        30.21S
CHARLOTTSVILLE MOSUNNY   78  67  68 S12       30.18S
GORDONSVILLE*  FAIR      77  67  69 S14G21    30.17F
ORANGE*        SUNNY     79  68  69 S12       30.19F
LOUISA*        SUNNY     79  66  65 SW7       30.18F
BUMPASS*       FAIR      79  66  65 SW7       30.18F
FARMVILLE*     SUNNY     79  64  59 SW9       30.20S
CREWE*         FAIR      80  66  62 SW12G20   30.22S
FORT PICKETT*  FAIR      79  70  73 SW10G23   30.23S
CHASE CITY*    FAIR      80  69  68 S3        30.23F
CLARKSVILLE*   FAIR      77  66  69 S10G17    30.23F
SOUTH HILL*    CLOUDY    76  68  76 S10       30.30F
LAWRENCEVILLE* PTSUNNY   75  70  83 S7        30.24F
EMPORIA*       MOSUNNY   73  68  83 S5        30.26S
$$

VAZ088>098-271500-
SOUTHEAST VIRGINIA

CITY           SKY/WX    TMP DP  RH WIND       PRES   REMARKS
NORFOLK        SUNNY     81  68  64 SW15      30.23F
VIRGINIA BEACH PTSUNNY   82  69  64 SW14      30.24S
NORFOLK NAVAL  MOSUNNY   84  68  58 SW10G17   30.25S
WEST POINT*    SUNNY     82  67  60 S7        30.23F
SALUDA*        PTSUNNY   79  69  73 SW8       30.21S
NEWPORT NEWS   PTSUNNY   84  70  62 S15       30.24S
LANGLEY AFB    MOSUNNY   79  70  72 S15       30.22S
FORT EUSTIS    SUNNY     78  69  73 SW8       30.22S
WILLIAMSBURG*  SUNNY     81  72  74 SW10      30.24S
HR EXEC AP*    FAIR      81  70  69 S10       30.26S
FRANKLIN*      PTSUNNY   79  69  72 SW8       30.24F
WAKEFIELD      MOSUNNY   79  69  71 S7        30.24S
$$

VAZ020-022-025-037-045-271500-
WEST CENTRAL AND SOUTHWEST VIRGINIA

CITY           SKY/WX    TMP DP  RH WIND       PRES   REMARKS
STAUNTON*      CLOUDY    76  66  72 S8        30.22R
WAYNESBORO*    FAIR      73  65  74 SW7       30.22S
HOT SPRINGS VA CLOUDY    64  63  96 W14G20    30.29S
LYNCHBURG      PTSUNNY   75  64  68 S10       30.23S
DANVILLE       MOSUNNY   78  64  61 W10       30.24F
SOUTH BOSTON*  FAIR      78  65  62 S10       30.23S
MARTINSVILLE   CLOUDY    71  68  92 S5        30.28S
ROANOKE        CLOUDY    74  62  66 SW9       30.24F
BLACKSBURG     PTSUNNY   71  62  71 W5        30.30F
DUBLIN*        PTSUNNY   74  63  69 SW7       30.28S
MARION*        CLOUDY    71  62  73 W10       30.31F
HILLSVILLE*    PTSUNNY   68  62  82 SW6       30.31S
RICHLANDS*     FAIR      69  60  71 SW9       30.29S
WISE*          PTSUNNY   70  57  64 SW10      30.30S
ABINGDON*      CLOUDY    71  64  77 SW5       30.28S
$$

MDZ021>025-VAZ099-100-271500-
SOUTHERN MARYLAND AND THE DELMARVA PENINSULA

CITY           SKY/WX    TMP DP  RH WIND       PRES   REMARKS
PATUXENT RIVER PTSUNNY   79  68  69 S7        30.19S
BAY BRIDGE APT   N/A    N/A N/A N/A S12       30.18S
LEONARDTOWN    MOSUNNY   77  68  73 S7        30.20F
DOVER          MOSUNNY   79  72  80 SW13G22   30.16F
GEORGETOWN     CLOUDY    77  69  76 S14       30.22S
EASTON         PTSUNNY   79  72  78 SW10      30.23F
CAMBRIDGE      CLOUDY    77  68  73 S12       30.20S
SALISBURY      CLOUDY    76  68  76 SW16      30.22F
OCEAN CITY     CLOUDY    72  65  78 SW14G21   30.24S
WALLOPS ISLAND PTSUNNY   73  67  81 S17       30.24F
ACCOMACK*      CLOUDY    79  70  73 S10       30.23F
$$

NCZ012>017-030>032-271500-
NORTH CENTRAL AND EASTERN NORTH CAROLINA

CITY           SKY/WX    TMP DP  RH WIND       PRES   REMARKS
ROANOKE RAPIDS CLOUDY    77  70  78 S10       30.26S
RALEIGH        PTSUNNY   76  70  82 SW9       30.27S
ELIZABETH CITY PTSUNNY   78  69  73 S14       30.27S
AHOSKIE*       PTSUNNY   76  69  78 CALM      30.26S
EDENTON*       PTSUNNY   78  70  75 S8        30.27S
CURRITUCK*     MOSUNNY   79  66  64 S9        30.27S
KILL DEVIL HLS CLOUDY    76  66  69 S5        30.27S
MANTEO         CLOUDY    75  66  73 S13       30.29S
CAPE HATTERAS  SUNNY     76  62  62 S9        30.30S
TARBORO*       PTSUNNY   80  70  71 SW6       30.27S
GOLDSBORO      PTSUNNY   79  70  73 SW12      30.24F
WASHINGTON     PTSUNNY   78  70  76 SW8       30.28S
GREENVILLE     PTSUNNY   79  72  78 SW8       30.27S
NEW BERN       CLOUDY    80  69  69 S3        30.29S
WILMINGTON     PTSUNNY   79  67  66 SW7       30.28S
$$

VAZ048-271500-
ELSEWHERE

CITY           SKY/WX    TMP DP  RH WIND       PRES   REMARKS
HARRISBURG PA  PTSUNNY   80  69  69 S10G18    30.13F
BALTIMORE      CLOUDY    76  68  76 SW10      30.16F
ANNAPOLIS      CLOUDY    75  68  78 SE8       30.17F
ANDREWS AFB    PTSUNNY   76  70  80 SW9       30.17F
PHILADELPHIA   CLOUDY    77  68  73 SW14      30.18S
HENDERSON NC   PTSUNNY   77  65  66 S12G17    30.26F
GREENSBORO     PTSUNNY   74  65  73 SW10      30.26S
ROCKY MOUNT    CLOUDY    77  70  79 SW7       30.26S
$$

VAZ100-271500-
MARINE

STATION/POSITION TIME  TEMP    WIND        PRES    WAVE   SWELL
                       AIR SEA DIR/SP/G            HT/PER HT/PER
                 (UTC) (F)     (DEG/KT/KT) (MB)    (FT/S) (FT/S)
BRANDYWINE LGT   1300   71 65  220/ 15/ 17 1022.9R
CAPE MAY NJ      1300   69 69  170/  9/ 13 1022.9R
LEWES DE         1300   75 63  230/  9/ 15 1023.0R
15NM E FENWICK I 1350   65 62              1023.7R   3/ 6
OCEAN-CITY-INLET 1300   64 61  210/ 12/ 14 1023.8R
WACHAPREAGUE VA  1300   74 73  210/ 13/ 16 1024.1R
THOMAS POINT MD  1400   71 68  160/ 13/ 14 1022.3F
GOOSES REEF MD   1400   71 69  180/ 10/ 12 1023.0F   1/ 2
COVE POINT MD    1300   74     220/ 13/ 15 1023.2R
SOLOMONS ISLAND  1300      70                N/A
BISHOPS HEAD MD  1300   72 72  190/ 14/ 17 1022.8R
PINEY POINT MD   1300          220/ 12/ 13   N/A
CAMBRIDGE MD     1300   74 71  190/  4/ 13 1022.6R
LEWISETTA VA     1300   74 72              1022.5R
RAPPAHANNOCK LGT 1300          180/ 13/ 14 1024.2R
STINGRAY PT      1400   75 72  210/  8/ 12 1023.3F   1/ 3
YORK RVR RNG VA  1300   74     220/ 12/ 14 1023.0R
YORKTOWN VA      1300   75 72  220/ 15/ 19 1023.1R
JAMESTOWN VA     1400   75 75  200/  6/  8 1022.5F
DOMINION TERM VA 1300   74     220/ 11/ 13 1023.9R
KIPTOPEKE VA     1300      74  170/  8/  8   N/A
CHES BAY BRIDGE  1300   75 70  180/ 13/ 15 1023.4R
CAPE HENRY VA    1300   76     190/ 12/ 17 1022.7R
CHESAPEAKE LGHT  1300   68     180/ 24/ 24 1024.4R
WILLOUBY STN VA  1300   76     210/ 15/ 16 1024.5R
CAPE HENRY BUOY  1328      62                N/A     3/ 6
1ST LANDING BUOY 1400      70              1023.5F
CAPE CHARLES BUO 1326      65                N/A     2/ 6   2/ 7
OFFSHORE WE BUOY 1311      65                N/A     3/ 5   2/ 6
64NM E OF VA BCH 1350   66 63  170/ 10/ 10 1025.4R   3/ 5   3/ 5
DUCK PIER NC     1300   74 56  170/ 13/ 18 1024.2R
44100 DUCK FRF   1324      64                N/A     2/ 5
44056 DUCK FRF   1311      61                N/A     2/ 6
OREGON INLET NC  1300   75 75  170/ 13/ 16 1025.8R
HATTERAS NC      1300   76 74  160/ 10/ 13 1025.4R
DIAMOND SHLS NC  1350   75 76  150/ 10/ 14 1025.8F   3/ 5   2/ 5
CAPE LOOKOUT NC  1400   74     150/  8/  9 1025.3S
$$


USA.gov is the U.S. government's official web portal to all federal, state and local government web resources and services.